Flag for U.S.A. Weather past 2 weeks in Babylon, New York, U.S.A.

Now
73 °F

Passing clouds.


Feels Like: 74 °F
Forecast: 67 / 71 °F
Wind: 7 mph from South

Location: Republic Airport

Current Time: Aug 1, 2014 at 8:25:42 PM

Latest Report: Aug 1, 2014 at 7:53 PM


Visibility: 10 mi

Pressure: 30.19 "Hg

Humidity: 76%

Dew point: 65 °F

Location of BabylonLocation

Historic Weather in Babylon — Graph

°F

Babylon temperature yesterday

Maximum temperature yesterday: 78 °F (at 11:53 AM)
Minimum temperature yesterday: 63 °F (at 4:53 AM)
Average temperature yesterday: 72 °F

Past Weeks' High & Low Weather Summary

 TemperatureHumidityPressure
High83 °F (Jul 22, 12:53 PM)100% (Jul 27, 4:53 AM)30.24 "Hg (Jul 27, 4:53 AM)
Low62 °F (Jul 21, 5:53 AM)31% (Jul 18, 12:53 PM)29.52 "Hg (Jul 28, 1:53 PM)
Average72 °F69%30.00 "Hg
* Reported Jul 17 6:53 PM — Aug 1 6:53 PM, Babylon, Weather by CustomWeather, © 2014

Note: Actual official high and low records may vary slightly from our data, if they occured in-between our weather recording intervals... More about our weather records

Advertising

Babylon weather history for previous 24 hours

 ConditionsComfort  
Time TempWeatherWind HumidityBarometerVisibility
6:53 PM
Aug 1
74 °FScattered clouds.10 mph79%30.20 "Hg10 mi
5:53 PM75 °FSunny.10 mph76%30.21 "Hg10 mi
4:53 PM74 °FPartly sunny.12 mph82%30.22 "Hg10 mi
10:53 AM79 °FSunny.No wind69%30.20 "Hg10 mi
9:53 AM78 °FSunny.6 mph71%30.19 "Hg10 mi
8:53 AM75 °FSunny.6 mph76%30.20 "Hg10 mi
7:53 AM73 °FSunny.7 mph81%30.19 "Hg10 mi
6:53 AM72 °FSunny.8 mph87%30.18 "Hg10 mi
5:53 AM72 °FClear.7 mph87%30.17 "Hg10 mi
4:53 AM71 °FClear.8 mph90%30.17 "Hg10 mi
3:53 AM71 °FPassing clouds.8 mph90%30.17 "Hg10 mi
2:53 AM71 °FClear.6 mph90%30.17 "Hg10 mi
1:53 AM71 °FClear.6 mph90%30.17 "Hg10 mi
12:53 AM72 °FClear.8 mph87%30.16 "Hg10 mi
11:53 PM
Jul 31
72 °FClear.7 mph87%30.16 "Hg10 mi
10:53 PM73 °FPassing clouds.10 mph81%30.15 "Hg10 mi
9:53 PM73 °FPassing clouds.13 mph81%30.15 "Hg10 mi
8:53 PM73 °FSunny.13 mph81%30.13 "Hg10 mi
Weather by CustomWeather, © 2014

See weather overviewHow to use our weather pages